This demonstration page uses our WeatherBlox Daily Observations layout. Learn more.

Left ArrowRight Arrow

39.92423, -83.80882

Hourly Observations for December 28, 2015

Temp ( °F °C ) Dew Point ( °F °C ) Humidity (%) Winds ( mph kmh ) Pressure ( in mb ) Visibility ( mi km ) Precip ( " mm )
12:56 am 00:56 Cloudy 37 2.7 35 1.6 93 93 NE 17 28 30.27 1025 10 16.0934 0 0.0254
1:56 am 01:56 Cloudy 37 2.7 34 1.1 89 89 ENE 18 30 30.26 1025 10 16.0934 0 0
2:56 am 02:56 Cloudy 37 2.7 34 1.1 89 89 ENE 18 30 30.25 1025 10 16.0934 0 0
3:27 am 03:27 Mostly Cloudy 37 3 34 1 87 87 ENE 20 31 30.27 1025 10 16.0934 0 0
3:56 am 03:56 Partly Cloudy 36 2.2 33 0.5 89 89 ENE 17 28 30.24 1024 10 16.0934 0 0
4:56 am 04:56 Cloudy 36 2.2 33 0.5 89 89 NE 18 30 30.24 1024 10 16.0934 0 0
5:56 am 05:56 Cloudy 36 2.2 32 0 86 86 NE 23 37 30.2 1023 10 16.0934 0 0
6:36 am 06:36 Cloudy with Rain 36 2 34 1 93 93 ENE 21 33 30.24 1024 5 8.0467 0.01 0.254
6:56 am 06:56 Cloudy with Light Rain 35 1.6 33 0.5 93 93 ENE 22 35 30.2 1023 5 8.0467 0.04 1.016
7:56 am 07:56 Cloudy with Light Rain 35 1.6 34 1.1 97 97 ENE 22 35 30.18 1022 10 16.0934 0.03 0.762
8:56 am 08:56 Mostly Cloudy with Light Rain 35 1.6 34 1.1 97 97 ENE 16 26 30.19 1023 4 6.43736 0.11 2.794
9:32 am 09:32 Mostly Cloudy 36 2 34 1 93 93 ENE 22 35 30.21 1023 10 16.0934 0.04 1.016
9:44 am 09:44 Cloudy 36 2 34 1 93 93 ENE 22 35 30.18 1022 10 16.0934 0.04 1.016
9:56 am 09:56 Cloudy 35 1.6 33 0.5 93 93 ENE 24 39 30.15 1021 10 16.0934 0.04 1.016
10:20 am 10:20 Cloudy 36 2 34 1 93 93 ENE 28 44 30.18 1022 8 12.87472 0.01 0.254
10:32 am 10:32 Cloudy 36 2 34 1 93 93 ENE 26 43 30.15 1021 8 12.87472 0.01 0.254
10:39 am 10:39 Cloudy 36 2 34 1 93 93 ENE 25 41 30.15 1021 8 12.87472 0.01 0.254
10:47 am 10:47 Cloudy 36 2 34 1 93 93 ENE 25 41 30.15 1021 7 11.26538 0.01 0.254
10:56 am 10:56 Cloudy 35 1.6 33 0.5 93 93 ENE 26 43 30.09 1019 10 16.0934 0.01 0.254
11:23 am 11:23 Cloudy with Rain 36 2 34 1 93 93 ENE 29 46 30.12 1020 1.75 2.816345 0.02 0.508
11:27 am 11:27 Cloudy with Light Rain 34 1 34 1 100 100 ENE 24 39 30.12 1020 1.25 2.011675 0.04 1.016
11:38 am 11:38 Cloudy with Light Rain 34 1 34 1 100 100 E 26 43 30.12 1020 1.5 2.41401 0.09 2.286
11:56 am 11:56 Cloudy with Light Rain 34 1.1 33 0.5 96 96 E 25 41 30.06 1018 4 6.43736 0.12 3.048
12:22 pm 12:22 Cloudy with Light Rain 36 2 34 1 93 93 E 21 33 30.09 1019 2.5 4.02335 0.03 0.762
12:32 pm 12:32 Cloudy with Light Rain 36 2 34 1 93 93 E 21 33 30.09 1019 3 4.82802 0.03 0.762
12:38 pm 12:38 Cloudy with Light Rain 36 2 34 1 93 93 E 23 37 30.06 1018 2.5 4.02335 0.04 1.016
12:40 pm 12:40 Mostly Cloudy with Light Rain 36 2 34 1 93 93 E 23 37 30.06 1018 1.75 2.816345 0.04 1.016
12:45 pm 12:45 Cloudy with Light Rain 36 2 34 1 93 93 E 22 35 30.06 1018 1.25 2.011675 0.04 1.016
12:47 pm 12:47 Mostly Cloudy with Light Rain 36 2 34 1 93 93 E 25 41 30.03 1017 1.5 2.41401 0.04 1.016
12:56 pm 12:56 Cloudy with Light Rain 35 1.6 34 1.1 97 97 E 23 37 29.99 1016 10 16.0934 0.04 1.016
1:04 pm 13:04 Cloudy with Light Rain 36 2 36 2 100 100 ENE 23 37 30 1016 10 16.0934 0 0.0254
1:56 pm 13:56 Cloudy with Light Rain 36 2.2 34 1.1 93 93 E 26 43 29.92 1013 8 12.87472 0 0.0254
2:02 pm 14:02 Cloudy with Rain 36 2 34 1 93 93 E 25 41 29.97 1015 1.75 2.816345 0.02 0.508
2:16 pm 14:16 Cloudy with Light Rain 36 2 36 2 100 100 E 25 41 29.91 1013 2 3.21868 0.06 1.524
2:19 pm 14:19 Cloudy with Light Rain 36 2 36 2 100 100 E 18 30 29.91 1013 1.25 2.011675 0.07 1.778
2:30 pm 14:30 Cloudy with Light Rain 36 2 36 2 100 100 E 23 37 29.91 1013 2 3.21868 0.08 2.032
2:39 pm 14:39 Cloudy with Light Rain 36 2 36 2 100 100 E 23 37 29.91 1013 5 8.0467 0.09 2.286
2:48 pm 14:48 Cloudy with Light Rain 36 2 36 2 100 100 E 25 41 29.88 1012 2 3.21868 0.11 2.794
2:56 pm 14:56 Cloudy with Light Rain 36 2.2 35 1.6 96 96 E 24 39 29.87 1011 5 8.0467 0.11 2.794
3:56 pm 15:56 Cloudy 37 2.7 36 2.2 97 97 E 24 39 29.83 1010 10 16.0934 0 0.0254
4:56 pm 16:56 Cloudy with Light Rain 38 3.3 37 2.7 96 96 E 24 39 29.79 1009 5 8.0467 0.01 0.254
5:11 pm 17:11 Cloudy with Light Rain 37 3 37 3 100 100 E 21 33 29.8 1009 4 6.43736 0.04 1.016
5:42 pm 17:42 Cloudy with Light Rain 39 4 37 3 93 93 E 25 41 29.74 1007 7 11.26538 0.09 2.286
5:56 pm 17:56 Cloudy with Light Rain 39 3.8 39 3.8 100 100 E 25 41 29.73 1007 4 6.43736 0.1 2.54
6:56 pm 18:56 Mostly Cloudy 41 5 41 5 100 100 E 25 41 29.7 1006 10 16.0934 0.06 1.524
7:56 pm 19:56 Cloudy 44 6.6 43 6.1 97 97 ESE 24 39 29.65 1004 10 16.0934 0 0
8:56 pm 20:56 Mostly Cloudy 47 8.3 47 8.3 100 100 ESE 17 28 29.6 1003 10 16.0934 0 0
9:09 pm 21:09 Mostly Cloudy 48 9 48 9 100 100 ESE 20 31 29.59 1002 10 16.0934 0 0
9:56 pm 21:56 Cloudy 50 10 50 10 100 100 SE 18 30 29.6 1002 10 16.0934 0 0
10:07 pm 22:07 Cloudy 52 11 50 10 94 94 SE 16 26 29.59 1002 10 16.0934 0 0
10:38 pm 22:38 Mostly Cloudy with Rain 54 12 54 12 100 100 SW 16 26 29.62 1003 1.75 2.816345 0.07 1.778
10:56 pm 22:56 Mostly Cloudy with Light Rain 54 12.2 54 12.2 100 100 S 12 19 29.64 1004 3 4.82802 0.1 2.54
11:03 pm 23:03 Cloudy with Light Rain 54 12 54 12 100 100 S 9 15 29.65 1004 2.5 4.02335 0.02 0.508
11:20 pm 23:20 Cloudy with Light Rain 54 12 54 12 100 100 SSW 13 20 29.65 1004 3 4.82802 0.03 0.762
11:31 pm 23:31 Cloudy with Mist and Fog 55 13 55 13 100 100 SSW 12 19 29.65 1004 2 3.21868 0.04 1.016
11:44 pm 23:44 Cloudy with Mist and Fog 54 12 54 12 100 100 SW 15 24 29.65 1004 3 4.82802 0.06 1.524
11:56 pm 23:56 Cloudy with Mist and Fog 54 12.2 54 12.2 100 100 SSW 12 19 29.67 1005 4 6.43736 0.06 1.524

Powered by AerisWeather